CST,Max TemperatureF,Mean TemperatureF,Min TemperatureF,Max Dew PointF,MeanDew PointF,Min DewpointF,Max Humidity, Mean Humidity, Min Humidity, Max Sea Level PressureIn, Mean Sea Level PressureIn, Min Sea Level PressureIn, Max VisibilityMiles, Mean VisibilityMiles, Min VisibilityMiles, Max Wind SpeedMPH, Mean Wind SpeedMPH, Max Gust SpeedMPH,PrecipitationIn, CloudCover, Events, WindDirDegrees
2014-1-1,-7,-10,-14,-13,-17,-20,84,74,65,30.43,30.39,30.34,10,10,5,7,3,,0.00,6,Snow,57
2014-1-2,-4,-16,-27,-11,-21,-33,84,78,65,30.45,30.37,30.17,10,10,7,7,1,,0.00,0,,183
2014-1-3,24,6,-11,21,4,-17,93,81,71,30.16,29.60,29.28,10,8,3,20,12,26,0.00,7,Snow,173
2014-1-4,24,5,-14,23,-5,-20,93,76,61,30.22,29.92,29.34,10,9,2,26,14,31,0.00,3,Snow,307
2014-1-5,-14,-20,-25,-20,-27,-35,84,72,63,30.34,30.28,30.21,10,9,2,17,8,25,0.00,1,,291
2014-1-6,-18,-22,-27,-24,-31,-35,83,69,58,30.25,30.17,30.03,10,10,5,16,11,22,0.00,1,,281
2014-1-7,-2,-11,-20,-11,-17,-26,84,75,65,30.20,30.07,29.99,10,10,10,14,7,,0.00,2,,279
2014-1-8,-2,-12,-23,-9,-19,-29,84,79,65,30.38,30.31,30.21,10,10,2,8,2,,0.00,1,,215
2014-1-9,17,6,-4,12,6,-9,86,79,72,30.23,29.93,29.70,10,10,10,20,11,26,0.00,3,,166
2014-1-10,26,20,15,27,22,12,100,96,86,29.68,29.54,29.44,7,2,0,17,11,21,0.00,8,Fog,181
2014-1-11,26,20,15,23,19,16,100,92,74,29.61,29.53,29.43,10,7,2,17,7,21,0.00,5,Snow,262
2014-1-12,41,31,21,30,26,19,93,80,61,29.49,29.35,29.22,10,10,7,16,8,24,0.00,3,,225
2014-1-13,28,22,15,25,15,10,93,79,68,29.62,29.56,29.50,10,10,1,18,10,28,0.00,6,Snow,274
2014-1-14,17,9,1,16,7,-2,93,82,72,30.14,29.90,29.51,10,6,1,18,10,25,0.00,6,Snow,329
2014-1-15,33,14,-5,27,5,-9,92,82,72,30.12,29.72,29.28,10,9,0,18,10,26,0.00,4,Snow,227
2014-1-16,33,14,-4,28,3,-9,87,76,66,29.96,29.62,29.28,10,6,1,31,18,40,0.02,6,Snow,314
2014-1-17,8,-3,-14,5,-9,-18,85,75,61,30.03,29.92,29.56,10,9,1,12,6,,0.00,2,Snow,261
2014-1-18,24,14,6,21,8,3,93,82,68,29.89,29.71,29.47,10,8,0,15,11,21,0.02,4,Snow,295
2014-1-19,28,24,19,23,21,18,100,87,74,29.68,29.53,29.44,10,9,3,16,10,23,0.00,4,Snow,282
2014-1-20,21,0,-22,21,-5,-27,100,74,46,30.45,30.10,29.69,10,9,2,18,12,25,0.00,4,Snow,346
2014-1-21,1,-12,-25,-2,-17,-31,85,78,65,30.43,30.16,29.92,10,8,1,12,5,,0.00,5,Snow,210
2014-1-22,1,-10,-22,-2,-15,-27,85,73,65,30.52,30.20,29.93,10,8,2,22,14,26,0.00,3,Snow,315
2014-1-23,8,-10,-25,-2,-19,-33,84,75,62,30.64,30.45,29.89,10,10,7,17,8,23,0.00,1,,252
2014-1-24,30,19,8,27,16,-8,93,79,48,29.85,29.60,29.45,10,8,1,32,14,41,0.00,7,Snow,281
2014-1-25,6,0,-7,-4,-10,-15,85,67,47,29.92,29.74,29.41,10,9,1,21,14,30,0.00,2,Snow,296
2014-1-26,8,-4,-16,3,-8,-24,92,77,64,30.09,29.60,29.34,10,4,0,38,13,48,0.01,7,Snow,310
2014-1-27,-13,-18,-22,-22,-26,-29,83,69,59,30.34,30.27,30.10,10,9,3,20,13,24,0.00,0,,286
2014-1-28,-7,-16,-25,-13,-21,-31,84,73,59,30.26,30.13,29.94,10,10,10,16,9,21,0.00,0,,260
2014-1-29,24,5,-14,12,-1,-18,84,70,46,29.93,29.66,29.48,10,10,10,21,10,26,0.00,1,,237
2014-1-30,12,-1,-14,7,-6,-18,85,75,55,29.95,29.73,29.52,10,10,2,24,9,25,0.00,3,Snow,318
2014-1-31,6,-5,-16,0,-11,-20,85,77,60,29.99,29.93,29.84,10,10,7,13,6,20,0.00,1,,223